TimeEST,TemperatureF,Dew PointF,Humidity,Sea Level PressureIn,VisibilityMPH,Wind Direction,Wind SpeedMPH,Gust SpeedMPH,PrecipitationIn,Events,Conditions,WindDirDegrees,DateUTC
12:01 AM,32.0,30.2,93,30.26,2.5,Calm,Calm,-,N/A,,Overcast,0,2012-11-28 05:01:00
12:14 AM,32.0,28.4,87,30.26,6.0,NNW,4.6,-,N/A,,Overcast,330,2012-11-28 05:14:00
12:53 AM,30.9,30.0,96,30.27,6.0,NNW,5.8,-,N/A,,Overcast,330,2012-11-28 05:53:00
1:53 AM,30.9,30.0,96,30.27,6.0,NNW,3.5,-,N/A,,Overcast,330,2012-11-28 06:53:00
2:53 AM,30.0,28.0,92,30.27,6.0,Calm,Calm,-,N/A,,Clear,0,2012-11-28 07:53:00
3:36 AM,26.6,24.8,93,30.26,1.8,Calm,Calm,-,N/A,,Clear,0,2012-11-28 08:36:00
3:53 AM,28.0,25.0,88,30.27,3.0,Calm,Calm,-,N/A,,Clear,0,2012-11-28 08:53:00
4:43 AM,24.8,24.8,100,30.25,1.8,Calm,Calm,-,N/A,,Clear,0,2012-11-28 09:43:00
4:53 AM,25.0,24.1,96,30.27,1.2,Calm,Calm,-,N/A,,Clear,0,2012-11-28 09:53:00
5:00 AM,24.8,24.8,100,30.25,0.8,Calm,Calm,-,N/A,,Clear,0,2012-11-28 10:00:00
5:07 AM,24.8,24.8,100,30.25,0.2,Calm,Calm,-,N/A,Fog,Light Freezing Fog,0,2012-11-28 10:07:00
5:19 AM,24.8,23.0,93,30.26,1.5,Calm,Calm,-,N/A,,Partly Cloudy,0,2012-11-28 10:19:00
5:23 AM,24.8,23.0,93,30.26,3.0,Calm,Calm,-,N/A,,Partly Cloudy,0,2012-11-28 10:23:00
5:40 AM,21.2,21.2,100,30.26,1.5,Calm,Calm,-,N/A,,Partly Cloudy,0,2012-11-28 10:40:00
5:42 AM,21.2,21.2,100,30.26,0.8,Calm,Calm,-,N/A,,Partly Cloudy,0,2012-11-28 10:42:00
5:53 AM,21.9,19.9,92,30.28,0.5,Calm,Calm,-,N/A,Fog,Light Freezing Fog,0,2012-11-28 10:53:00
6:18 AM,24.8,21.2,86,30.26,1.5,Calm,Calm,-,N/A,,Overcast,0,2012-11-28 11:18:00
6:21 AM,24.8,21.2,86,30.26,3.0,Calm,Calm,-,N/A,,Overcast,0,2012-11-28 11:21:00
6:53 AM,25.0,24.1,96,30.29,6.0,Calm,Calm,-,N/A,,Overcast,0,2012-11-28 11:53:00
7:53 AM,26.1,25.0,96,30.30,5.0,Calm,Calm,-,N/A,,Overcast,0,2012-11-28 12:53:00
8:53 AM,28.9,27.0,92,30.31,6.0,Calm,Calm,-,N/A,,Overcast,0,2012-11-28 13:53:00
9:53 AM,30.9,28.9,92,30.30,6.0,Calm,Calm,-,N/A,,Overcast,0,2012-11-28 14:53:00
10:53 AM,35.1,25.0,67,30.29,10.0,Calm,Calm,-,N/A,,Overcast,0,2012-11-28 15:53:00
11:53 AM,37.0,21.9,54,30.27,10.0,WNW,9.2,-,N/A,,Mostly Cloudy,290,2012-11-28 16:53:00
12:53 PM,37.9,21.0,51,30.26,10.0,West,8.1,-,N/A,,Scattered Clouds,270,2012-11-28 17:53:00
1:53 PM,39.9,19.9,45,30.24,10.0,West,9.2,-,N/A,,Partly Cloudy,280,2012-11-28 18:53:00
2:53 PM,41.0,21.0,45,30.23,10.0,WNW,6.9,-,N/A,,Mostly Cloudy,290,2012-11-28 19:53:00
3:53 PM,39.9,21.9,49,30.24,10.0,WNW,4.6,-,N/A,,Mostly Cloudy,290,2012-11-28 20:53:00
4:53 PM,39.0,21.0,49,30.27,10.0,WNW,6.9,-,N/A,,Mostly Cloudy,290,2012-11-28 21:53:00
5:53 PM,37.0,19.9,50,30.27,10.0,Calm,Calm,-,N/A,,Partly Cloudy,0,2012-11-28 22:53:00
6:53 PM,35.1,21.0,57,30.29,10.0,Calm,Calm,-,N/A,,Mostly Cloudy,0,2012-11-28 23:53:00
7:53 PM,30.0,26.1,85,30.31,10.0,Calm,Calm,-,N/A,,Mostly Cloudy,0,2012-11-29 00:53:00
8:53 PM,32.0,25.0,75,30.32,10.0,Calm,Calm,-,N/A,,Overcast,0,2012-11-29 01:53:00
9:53 PM,35.1,21.0,57,30.33,10.0,West,3.5,-,N/A,,Mostly Cloudy,270,2012-11-29 02:53:00
10:53 PM,33.1,21.0,61,30.33,10.0,SW,4.6,-,N/A,,Partly Cloudy,220,2012-11-29 03:53:00
11:53 PM,33.1,21.9,64,30.34,10.0,SW,3.5,-,N/A,,Overcast,220,2012-11-29 04:53:00